Regional Weather Roundup
Issued by NWS Albany, NY

Current Version | Previous Version | Graphics & Text | Print | Product List | Glossary Off
Versions: 1 2 3 4 5 6 7 8 9 10 11 12 13 14 15 16 17 18 19 20 21 22 23 24 25 26 27

000
ASUS41 KALY 171710
RWRALY

NEW YORK STATE HOURLY WEATHER ROUNDUP
NATIONAL WEATHER SERVICE ALBANY NY
1200 PM EST TUE JAN 17 2017

NOTE: "FAIR" INDICATES FEW OR NO CLOUDS BELOW 12,000 FEET WITH NO
SIGNIFICANT WEATHER AND/OR NO OBSTRUCTIONS TO VISIBILITY.

NYZ032-033-038>043-046>054-057>066-NYZ062>081-082-084-171800-
EAST


CITY           SKY/WX    TMP DP  RH WIND       PRES   REMARKS
ALBANY         CLOUDY    32  22  66 NE3       30.18F
GLENS FALLS    PTSUNNY   35  19  52 NW5       30.16F WCI  31
POUGHKEEPSIE   CLOUDY    35  31  85 CALM      30.17F FOG
NEWBURGH       DRIZZLE   37  32  81 VRB5      30.18F WCI  34
MONTGOMERY     LGT RAIN  37  31  78 N5        30.16F WCI  33
WHITE PLAINS   LGT RAIN  37  31  78 E5        30.16F FOG     WCI  33
ISLIP          LGT RAIN  40  36  86 NE3       30.18F FOG
NEW YORK CITY  LGT RAIN  41  35  79 E6        30.18F
CENTRAL PARK   LGT RAIN  40  37  89 VRB3      30.19F FOG
$$

NYZ005>009-017-018-044>046-055-056-171800-
CENTRAL


CITY           SKY/WX    TMP DP  RH WIND       PRES   REMARKS
FULTON         FRZ RAIN  34  28  79 SE6       30.02F WCI  29
SYRACUSE       FRZ RAIN  32  30  92 E12       30.03F FOG     WCI  23
ROME           LGT RAIN  34  26  72 SE6       30.10F WCI  29
ELMIRA         LGT RAIN  36  32  85 VRB3      29.99F FOG
BINGHAMTON     FRZ RAIN  32  31  96 SE12      30.00F FOG     WCI  23
MONTICELLO     CLOUDY    32  28  86 E8        30.12F WCI  25
$$

NYZ026>034-041>043-087-171800-
NORTH


CITY           SKY/WX    TMP DP  RH WIND       PRES   REMARKS
WATERTOWN      CLOUDY    36  24  62 NE7       30.05F WCI  30
FORT DRUM      NOT AVBL
OGDENSBURG     FAIR      35  27  73 NE6       30.11F WCI  30
MASSENA        CLOUDY    34  26  72 NE12      30.15F WCI  25
SARANAC LAKE   MOSUNNY   33  21  61 NE10      30.06F WCI  25
PLATTSBURGH    SUNNY     34  21  59 E5        30.20F WCI  30
$$

NYZ001>004-010>016-019>021-085-171800-
WEST


CITY           SKY/WX    TMP DP  RH WIND       PRES   REMARKS
NIAGARA FALLS  LGT RAIN  38  34  85 E12       29.84F FOG     WCI  30
BUFFALO        LGT RAIN  40  38  93 E6        29.84F
DUNKIRK        HVY RAIN  50  47  89 SW16      29.83F FOG
JAMESTOWN      CLOUDY    45  43  93 S9        29.84F VSB 1/4
WELLSVILLE     RAIN      39  38  96 SE9       29.90F VSB 1/4 WCI  33
ROCHESTER      LGT RAIN  37  35  92 E12       29.92F FOG     WCI  29
PENN YAN       RAIN      37  33  85 SE8       29.95F FOG     WCI  31
$$

             KEY
       WCI = WIND CHILL INDEX
       VSB = VISIBILITY
       HX  = HEAT INDEX
$$




USA.gov is the U.S. government's official web portal to all federal, state and local government web resources and services.